Location: Champignolles
(47.0543°N, 4.5663°E)
Time: 06:24:31
(UTC+00:00)

ISS - Visible Passes

Search period start: 02 December 2021 00:00
Search period end: 12 December 2021 00:00
Orbit: 417 x 423 km, 51.6° (Epoch: 02 December)

Date Brightness Start Highest point End Pass type
(mag) Time Alt. Az. Time Alt. Az. Time Alt. Az.
02 Dec -3.1 16:56:50 10° WNW 17:00:05 40° N 17:02:15 18° ENE visible
02 Dec -1.5 18:33:42 10° WNW 18:35:15 25° WNW 18:35:15 25° WNW visible
03 Dec -3.9 17:46:29 10° WNW 17:49:54 82° NNE 17:50:10 73° E visible
04 Dec -3.7 16:59:17 10° WNW 17:02:40 61° NNE 17:05:14 16° E visible
04 Dec -1.4 18:36:20 10° W 18:38:14 24° WSW 18:38:14 24° WSW visible
05 Dec -2.8 17:48:58 10° WNW 17:52:14 45° SW 17:53:27 30° SSE visible
06 Dec -3.4 17:01:41 10° WNW 17:05:04 69° SSW 17:08:26 10° SE visible
06 Dec -0.7 18:39:52 10° WSW 18:41:21 12° SW 18:41:58 12° SW visible
07 Dec -1.1 17:51:50 10° W 17:54:20 19° SW 17:56:49 10° S visible
08 Dec -1.6 17:04:15 10° W 17:07:14 29° SW 17:10:14 10° SSE visible
10 Dec -0.3 17:07:46 10° WSW 17:09:11 12° SW 17:10:36 10° SSW visible
